FW3788 Weather Reports


Display with metric or nautical units.
time (UTC)temp
F
wind
direction
speed
MPH
gust
MPH
rain 1hr
in
rain 24hr
in
rain mn
in
humidity
%
barometer
mb
20260504151019 49 126 0.0 0.0 0.00 0.00 0.00 65 1013.6
20260504150521 48 170 0.0 0.0 0.00 0.00 0.00 67 1013.6
20260504141016 42 170 0.0 0.0 0.00 0.00 0.00 80 1013.4
20260504140517 41 170 0.0 0.0 0.00 0.00 0.00 80 1013.4
20260504130514 43 170 0.0 0.0 0.00 0.00 0.00 77 1012.9
20260504110515 46 189 0.0 0.0 0.00 0.00 0.00 75 1013.2
20260504100514 47 295 0.0 1.0 0.00 0.00 0.00 71 1013.1
20260504081515 46 295 0.0 0.0 0.00 0.00 0.00 74 1013.1
20260504081015 46 295 0.0 0.0 0.00 0.00 0.00 74 1013.2
20260504080515 46 295 0.0 0.0 0.00 0.00 0.00 75 1013.0
20260504050516 49 298 0.0 4.0 0.00 0.00 0.00 68 1012.8
20260504050115 49 299 0.0 1.0 0.00 0.00 0.00 69 1012.7
20260504045515 49 299 0.0 5.0 0.00 0.00 0.00 69 1012.8
20260504045015 49 300 0.0 5.0 0.00 0.00 0.00 69 1012.6
20260504044517 49 300 0.0 7.0 0.00 0.00 0.00 69 1012.6
20260504044015 49 298 0.0 6.0 0.00 0.00 0.00 68 1012.5
20260504043515 49 291 0.0 6.0 0.00 0.00 0.00 68 1012.5
20260504043018 49 290 0.0 6.0 0.00 0.00 0.00 68 1012.3
20260504042518 49 292 0.0 4.0 0.00 0.00 0.00 68 1012.2
20260504042015 49 291 0.0 4.0 0.00 0.00 0.00 69 1012.2
20260504041529 49 222 0.0 0.0 0.00 0.00 0.00 69 1012.2
20260504041015 49 221 0.0 3.0 0.00 0.00 0.00 69 1012.2
20260504040517 49 220 0.0 3.0 0.00 0.00 0.00 69 1012.1
20260504040142 49 289 0.0 1.0 0.00 0.00 0.00 70 1012.0
20260504035516 49 289 0.0 1.0 0.00 0.00 0.00 71 1011.9
20260504035016 49 194 0.0 4.0 0.00 0.00 0.00 71 1011.8
20260504034519 49 194 0.0 4.0 0.00 0.00 0.00 71 1011.8
20260504034015 49 316 0.0 0.0 0.00 0.00 0.00 72 1011.7
20260504033516 49 316 0.0 0.0 0.00 0.00 0.00 72 1011.7
20260504033015 49 316 0.0 0.0 0.00 0.00 0.00 73 1011.6
20260504032515 49 316 0.0 0.0 0.00 0.00 0.00 72 1011.5
20260504032015 49 316 0.0 0.0 0.00 0.00 0.00 72 1011.4
20260504031516 49 316 0.0 0.0 0.00 0.00 0.00 72 1011.3
20260504031015 49 316 0.0 0.0 0.00 0.00 0.00 72 1011.2
20260504030515 49 316 0.0 7.0 0.00 0.00 0.00 71 1011.1
20260504030015 49 316 3.0 7.0 0.00 0.00 0.00 71 1011.2
20260504025515 50 303 2.0 9.0 0.00 0.00 0.00 70 1011.1
20260504025016 50 325 2.0 7.0 0.00 0.00 0.00 70 1011.0
20260504024515 50 320 3.0 6.0 0.00 0.00 0.00 69 1010.8
20260504024015 50 297 1.0 7.0 0.00 0.00 0.00 69 1010.7
20260504023515 51 321 4.0 9.0 0.00 0.00 0.00 68 1010.7
20260504023017 51 326 3.0 8.0 0.00 0.00 0.00 67 1010.7
20260504022519 51 305 2.0 10.0 0.00 0.00 0.00 66 1010.6
20260504022016 52 321 2.0 10.0 0.00 0.00 0.00 65 1010.6
20260504021515 52 310 1.0 9.0 0.00 0.00 0.00 65 1010.5
20260504021015 52 310 3.0 11.0 0.00 0.00 0.00 65 1010.4
20260504020515 52 329 4.0 12.0 0.00 0.00 0.00 64 1010.3
20260504020019 53 354 5.0 12.0 0.00 0.00 0.00 64 1010.2
20260504015516 53 343 3.0 11.0 0.00 0.00 0.00 65 1010.3
20260504015018 53 335 3.0 10.0 0.00 0.00 0.00 65 1010.1
20260504014524 53 340 4.0 13.0 0.00 0.00 0.00 65 1010.0
20260504014015 53 289 4.0 13.0 0.00 0.00 0.00 65 1010.0
20260504013516 53 322 6.0 12.0 0.00 0.00 0.00 64 1010.1
20260504013016 54 317 5.0 11.0 0.00 0.00 0.00 64 1010.1
20260504012515 54 301 5.0 17.0 0.00 0.00 0.00 63 1010.0
20260504012016 54 337 9.0 17.0 0.00 0.00 0.00 63 1009.9
20260504011516 55 318 5.0 16.0 0.00 0.00 0.00 62 1009.8
20260504011015 55 285 4.0 13.0 0.00 0.00 0.00 62 1009.8
20260504010515 55 294 5.0 16.0 0.00 0.00 0.00 62 1009.8
20260504010015 55 327 3.0 16.0 0.00 0.00 0.00 62 1009.7
20260504005616 55 274 0.0 11.0 0.00 0.00 0.00 62 1009.7
20260504005015 56 318 2.0 14.0 0.00 0.00 0.00 61 1009.7
20260504004521 56 309 4.0 14.0 0.00 0.00 0.00 61 1009.6
20260504004015 57 288 0.0 11.0 0.00 0.00 0.00 59 1009.6
20260504003517 56 253 1.0 12.0 0.00 0.00 0.00 60 1009.7
20260504003016 56 292 5.0 13.0 0.00 0.00 0.00 60 1009.4
20260504002515 57 275 4.0 14.0 0.00 0.00 0.00 60 1009.4
20260504002015 57 298 5.0 14.0 0.00 0.00 0.00 60 1009.3
20260504001516 57 291 4.0 14.0 0.00 0.00 0.00 59 1009.3
20260504001016 58 305 4.0 11.0 0.00 0.00 0.00 58 1009.3
20260504000516 59 289 0.0 6.0 0.00 0.00 0.00 57 1009.3
20260504000016 60 279 2.0 9.0 0.00 0.00 0.00 53 1009.2
20260503235517 60 186 1.0 9.0 0.00 0.00 0.00 50 1009.2
20260503235016 61 179 3.0 8.0 0.00 0.00 0.00 48 1009.1
20260503234516 61 206 0.0 2.0 0.00 0.00 0.00 48 1009.2
20260503234016 60 206 0.0 2.0 0.00 0.00 0.00 51 1009.3
20260503233517 60 206 0.0 9.0 0.00 0.00 0.00 51 1009.4
20260503233018 60 168 6.0 9.0 0.00 0.00 0.00 49 1009.4
20260503232617 60 191 0.0 7.0 0.00 0.00 0.00 52 1009.3
20260503232015 60 191 1.0 7.0 0.00 0.00 0.00 50 1009.3
20260503231516 60 191 0.0 6.0 0.00 0.00 0.00 51 1009.3
20260503231016 60 191 0.0 4.0 0.00 0.00 0.00 52 1009.3
20260503230516 60 191 0.0 8.0 0.00 0.00 0.00 51 1009.3
20260503230016 60 193 0.0 10.0 0.00 0.00 0.00 52 1009.3
20260503225515 60 165 0.0 5.0 0.00 0.00 0.00 51 1009.3
20260503225016 60 165 0.0 14.0 0.00 0.00 0.00 50 1009.4
20260503224516 60 164 4.0 16.0 0.00 0.00 0.00 52 1009.5
20260503224016 61 187 12.0 16.0 0.00 0.00 0.00 50 1009.5
20260503223515 61 166 5.0 16.0 0.00 0.00 0.00 51 1009.5
20260503223017 61 173 0.0 13.0 0.00 0.00 0.00 50 1009.6
20260503222516 61 193 2.0 14.0 0.00 0.00 0.00 51 1009.7
20260503222015 61 189 1.0 13.0 0.00 0.00 0.00 52 1009.6
20260503221526 60 186 5.0 18.0 0.00 0.00 0.00 52 1009.7
20260503221017 59 166 12.0 18.0 0.00 0.00 0.00 53 1009.8
20260503220516 59 156 9.0 15.0 0.00 0.00 0.00 53 1009.8
20260503220016 60 182 8.0 15.0 0.00 0.00 0.00 52 1010.0
20260503215516 59 201 8.0 15.0 0.00 0.00 0.00 55 1010.0
20260503215015 59 190 8.0 15.0 0.00 0.00 0.00 53 1010.0
20260503214517 59 172 6.0 15.0 0.00 0.00 0.00 55 1010.0
20260503214016 59 169 10.0 16.0 0.00 0.00 0.00 55 1010.0
20260503213516 59 162 9.0 19.0 0.00 0.00 0.00 54 1009.9
20260503213019 60 187 12.0 19.0 0.00 0.00 0.00 53 1010.1
20260503212517 60 204 1.0 12.0 0.00 0.00 0.00 54 1009.9
20260503212016 59 181 1.0 12.0 0.00 0.00 0.00 54 1009.9
20260503211516 59 170 5.0 17.0 0.00 0.00 0.00 55 1010.0
20260503211016 59 150 11.0 17.0 0.00 0.00 0.00 54 1009.9
20260503210515 59 195 5.0 16.0 0.00 0.00 0.00 56 1010.0
20260503210016 59 180 7.0 14.0 0.00 0.00 0.00 55 1010.0
20260503205516 58 158 8.0 13.0 0.00 0.00 0.00 55 1010.2
20260503205016 58 176 0.0 10.0 0.00 0.00 0.00 56 1010.2
20260503204518 57 225 0.0 10.0 0.00 0.00 0.00 56 1010.3
20260503204017 57 192 2.0 8.0 0.00 0.00 0.00 58 1010.4
20260503203515 56 203 0.0 11.0 0.00 0.00 0.00 59 1010.3
20260503203017 56 189 0.0 11.0 0.00 0.00 0.00 58 1010.4
20260503202516 57 187 0.0 10.0 0.00 0.00 0.00 57 1010.3
20260503202016 56 181 2.0 16.0 0.00 0.00 0.00 58 1010.4
20260503201516 57 216 4.0 19.0 0.00 0.00 0.00 59 1010.4
20260503201016 57 176 10.0 19.0 0.00 0.00 0.00 58 1010.5
20260503200519 56 149 11.0 20.0 0.00 0.00 0.00 58 1010.5
20260503200016 57 170 13.0 19.0 0.00 0.00 0.00 58 1010.4
20260503195515 56 146 9.0 18.0 0.00 0.00 0.00 59 1010.4
20260503195020 56 164 10.0 18.0 0.00 0.00 0.00 60 1010.5
20260503194516 54 151 11.0 18.0 0.00 0.00 0.00 62 1010.6
20260503194016 55 174 5.0 15.0 0.00 0.00 0.00 63 1010.6
20260503193521 55 200 0.0 15.0 0.00 0.00 0.00 64 1010.6
20260503193016 56 191 0.0 12.0 0.00 0.00 0.00 62 1010.6
20260503192515 55 147 8.0 12.0 0.00 0.00 0.00 62 1010.5
20260503192016 55 203 5.0 12.0 0.00 0.00 0.00 61 1010.6
20260503191518 54 177 4.0 17.0 0.00 0.00 0.00 63 1010.7
20260503191017 54 160 7.0 17.0 0.00 0.00 0.00 63 1010.8
20260503190517 54 170 10.0 15.0 0.00 0.00 0.00 63 1010.8
20260503190018 54 157 9.0 16.0 0.00 0.00 0.00 63 1010.8
20260503185516 54 188 7.0 15.0 0.00 0.00 0.00 63 1010.8
20260503185016 54 180 5.0 17.0 0.00 0.00 0.00 63 1010.9
20260503184517 54 190 10.0 17.0 0.00 0.00 0.00 62 1010.9
20260503184017 54 176 11.0 17.0 0.00 0.00 0.00 64 1010.9
20260503183517 54 186 12.0 17.0 0.00 0.00 0.00 61 1010.9
20260503183018 54 183 9.0 18.0 0.00 0.00 0.00 62 1010.9
20260503182516 53 171 9.0 18.0 0.00 0.00 0.00 64 1010.9
20260503182016 53 164 11.0 16.0 0.00 0.00 0.00 64 1010.9
20260503181516 53 173 10.0 16.0 0.00 0.00 0.00 64 1010.9
20260503181016 53 152 8.0 16.0 0.00 0.00 0.00 66 1010.7
20260503180517 53 171 6.0 16.0 0.00 0.00 0.00 66 1010.8
20260503180017 52 181 8.0 16.0 0.00 0.00 0.00 69 1010.9
20260503175516 51 169 4.0 16.0 0.00 0.00 0.00 71 1011.0
20260503175016 51 179 7.0 16.0 0.00 0.00 0.00 72 1010.9
20260503174518 50 169 8.0 16.0 0.00 0.00 0.00 74 1011.0
20260503174016 50 151 7.0 16.0 0.00 0.00 0.00 77 1010.9
20260503173516 49 151 7.0 17.0 0.00 0.00 0.00 77 1010.9
20260503173016 50 177 10.0 17.0 0.00 0.00 0.00 77 1010.9
20260503172517 50 170 8.0 17.0 0.00 0.00 0.00 76 1010.8
20260503172016 50 179 11.0 17.0 0.00 0.00 0.00 75 1010.8
20260503171516 50 179 9.0 15.0 0.00 0.00 0.00 77 1010.6
20260503171017 49 171 8.0 14.0 0.00 0.00 0.00 79 1010.5
20260503170516 49 168 8.0 12.0 0.00 0.00 0.00 78 1010.5